Location: ???????
(56.2167°N, 38.0500°E)
Time: 03:33:43
(UTC+00:00)

Meteor 1-26 Rocket - Pass Details

Date: 19 May 2025
Orbit: 805 x 928 km, 81.3° (Epoch: 19 June)

Event Time Altitude Azimuth Distance (km) Brightness Sun altitude
Rises 19:11:51 0° 195° (SSW) 3,492 7.0 -8.9°
Reaches altitude 10° 19:14:16 10° 196° (SSW) 2,572 6.3 -9.0°
Maximum altitude 19:20:11 83° 285° (WNW) 930 4.5 -9.5°
Drops below altitude 10° 19:26:16 10° 14° (NNE) 2,642 7.5 -9.9°
Sets 19:28:46 0° 15° (NNE) 3,593 8.3 -10.0°
